User: anonymous   Login
Location: Unspecified
(0.0000°N, 0.0000°E)
Time: 12:51:11
(UTC+01:00)
Language:

ARIANE 5 R/B - Orbit

View from above orbital plane
View from above orbital plane
View from above satellite
View from above satellite

Ground track
Ground track

The orbit data is extracted from the following two-line orbital elements,

1 28379U 04027B   17020.13838913  .00000070  00000-0  20434-2 0  9990
2 28379   7.2573  17.6072 7285409 335.1549  92.0200  2.07927543 95065
Epoch (UTC): 20 January 2017 03:19:16
Eccentricity: 0.7285409
inclination: 7.2573°
perigee height: 660 km
apogee height: 38441 km
right ascension of ascending node: 17.6072°
argument of perigee: 335.1549°
revolutions per day: 2.07927543
mean anomaly at epoch: 92.0200°
orbit number at epoch: 9506

The dashed part of the orbit path shows where the satellite is in the earth's shadow,  

DLR